Location: Brienzwiler
(46.7508°N, 8.1014°E)
Time: 15:40:54
(UTC+00:00)

Cosmos 2181 Rocket - Pass Details

Date: 05 July 2020
Orbit: 951 x 1015 km, 82.9° (Epoch: 10 August)

Event Time Altitude Azimuth Distance (km) Brightness Sun altitude
Rises 21:20:25 0° 349° (N) 3,736 8.5 -14.4°
Reaches altitude 10° 21:22:59 10° 347° (NNW) 2,773 7.6 -14.7°
Maximum altitude 21:29:17 69° 266° (W) 1,050 4.2 -15.2°
Enters shadow 21:34:17 16° 186° (S) 2,283 5.5 -15.6°
